Location: Earls Croome
(52.0667°N, 2.2000°W)
Time: 15:33:55
(UTC+00:00)

In-Cosmos 22 Rocket - Pass Details

Date: 17 November 2019
Orbit: 791 x 887 km, 81.2° (Epoch: 07 December)

Event Time Altitude Azimuth Distance (km) Brightness Sun altitude
Rises 05:59:29 0° 214° (SW) 3,303 7.1 -13.9°
Reaches altitude 10° 06:01:58 10° 222° (SW) 2,387 6.3 -13.6°
Maximum altitude 06:07:03 41° 292° (WNW) 1,175 4.5 -12.8°
Drops below altitude 10° 06:12:18 10° 3° (N) 2,460 6.5 -12.0°
Sets 06:14:54 0° 10° (N) 3,414 7.3 -11.7°
